Regional Weather Roundup
Issued by NWS

Home | Current Version | Previous Version | Graphics & Text | Print | Product List | Glossary On
Versions: 1 2 3 4 5 6 7 8 9 10 11 12 13 14 15 16 17 18 19 20 21 22 23 24 25 26 27 28 29 30 31 32 33 34 35 36 37 38 39 40 41 42 43 44 45 46 47 48 49 50
000
ASUS43 KDMX 281204
RWRIA

WEATHER ROUNDUP FOR IOWA
NATIONAL WEATHER SERVICE DES MOINES IA
  ISSUED BY NWS QUAD CITIES IA IL
600 AM CST SAT FEB 28 2015

NOTE: "FAIR" INDICATES FEW OR NO CLOUDS BELOW 12,000 FEET WITH NO
SIGNIFICANT WEATHER AND/OR OBSTRUCTIONS TO VISIBILITY.

* - THESE STATIONS ARE NOT NWS STATIONS...THUS NOT UNDER NWS
QUALITY CONTROL.  THEY ALSO DO NOT REPORT WEATHER SUCH
AS PRECIPITATION OR FOG.

IAZ001>003-012>014-020>022-031>034-043>046-281300-
   NORTHWEST IOWA

CITY           SKY/WX    TMP DP  RH WIND       PRES   REMARKS
CARROLL *      MOCLDY    -4  -9  77 CALM      30.51S
CHEROKEE *     MOSUNNY   -4  -8  83 CALM      30.47S
6HR MIN TEMP:  -6; 6HR MAX TEMP:  -1;

DENNISON *     MOCLDY     3  -2  78 CALM      30.47S
LE MARS *      PTCLDY    -6  -9  84 CALM      30.46S
ORANGE CITY *  PTCLDY     1  -6  71 SE3       30.42S
SHELDON *      CLEAR     -2  -8  78 S9        30.42S WCI -18
SIOUX CITY     MOCLDY     2  -3  80 E8        30.46S WCI -12
6HR MIN TEMP:   0; 6HR MAX TEMP:   3;

SPENCER        PTCLDY    -4  -9  79 S8        30.46R WCI -19
6HR MIN TEMP:  -6; 6HR MAX TEMP:   0;

STORM LAKE *   FAIR      -4  -9  77 S12       30.46R WCI -22
$$

IAZ055>058-069>071-079>083-090>094-281300-
   SOUTHWEST IOWA

CITY           SKY/WX    TMP DP  RH WIND       PRES   REMARKS
ATLANTIC *     CLEAR     -2  -8  78 CALM      30.51R
AUDUBON *      CLEAR     -8 -11  84 CALM      30.49S
CLARINDA *     CLOUDY     5   1  85 CALM      30.54S
COUNCIL BLFS * CLEAR      7   1  78 SE7       30.46F WCI  -5
CRESTON *      PTCLDY     1  -4  78 SE7       30.52R WCI -11
HARLAN *       PTCLDY    -2  -4  92 CALM      30.53R
LAMONI         CLOUDY     6   1  80 SE5       30.53R WCI  -3
6HR MIN TEMP:   5; 6HR MAX TEMP:   6;

RED OAK *      MOCLDY     5   1  85 CALM      30.52S
SHENANDOAH *   PTCLDY     7   1  78 E5        30.52F WCI  -2
$$

IAZ047>049-059>061-072>074-084-281300-
   CENTRAL IOWA

CITY           SKY/WX    TMP DP  RH WIND       PRES   REMARKS
AMES           PTCLDY    -8 -13  78 CALM      30.57R
6HR MIN TEMP:  -9; 6HR MAX TEMP:  -3;

ANKENY *       CLEAR     -8 -13  77 CALM      30.58S
BOONE *        PTCLDY    -4  -9  77 SE5       30.53R WCI -15
CHARITON *     CLOUDY     1  -4  78 SE6       30.56R WCI -10
DES MOINES     CLEAR      2  -5  72 SE5       30.56S WCI  -8
6HR MIN TEMP:   2; 6HR MAX TEMP:   6;

GRINNELL *     MOSUNNY   -4  -8  84 SE6       30.58R WCI -17
6HR MIN TEMP: -10; 6HR MAX TEMP:  -3;

KNOXVILLE *    PTCLDY     0  -9  65 SE7       30.57R WCI -13
MARSHALLTOWN   PTCLDY   -12 -15  86 E7        30.56S WCI -27
6HR MIN TEMP: -12; 6HR MAX TEMP:  -9;

NEWTON *       PTCLDY    -8 -15  71 SE7       30.58R WCI -22
PELLA *        PTCLDY    -4  -6  91 SE6       30.61R WCI -16
6HR MIN TEMP:  -5; 6HR MAX TEMP:  -2;

PERRY *          N/A     -4  -7  86 SE5       30.54S WCI -15
6HR MIN TEMP:  -4; 6HR MAX TEMP:   0;

$$

IAZ004>006-015-016-023>025-035-036-281300-
   NORTH CENTRAL IOWA

CITY           SKY/WX    TMP DP  RH WIND       PRES   REMARKS
ALGONA *       MOCLDY    -6  -9  84 S8        30.51S WCI -21
CLARION *      MOCLDY    -6 -11  77 S9        30.53S WCI -22
ESTHERVILLE    CLEAR    -11 -15  82 S9        30.46F WCI -29
6HR MIN TEMP: -12; 6HR MAX TEMP:  -6;

FORT DODGE *   MOCLDY   -11 -17  77 CALM      30.52S
6HR MIN TEMP: -11; 6HR MAX TEMP:   0;

MASON CITY     MOCLDY   -17 -22  78 S6        30.55R WCI -32
6HR MIN TEMP: -18; 6HR MAX TEMP: -10;

WEBSTER CITY * MOCLDY    -9 -11  92 SE9       30.52S WCI -27
IOWA FALLS *   FAIR     -12 -17  77 SE3       30.55F
6HR MIN TEMP: -14; 6HR MAX TEMP:  -7;

$$

IAZ007>011-017>019-026>030-037>042-050>054-066-281300-
   NORTHEAST IOWA

CITY           SKY/WX    TMP DP  RH WIND       PRES   REMARKS
CEDAR RAPIDS   MOCLDY   -13 -17  82 SE6       30.61R WCI -27
6HR MIN TEMP: -13; 6HR MAX TEMP:  -4;

CHARLES CITY * PTCLDY    -8 -13  77 S8        30.57R WCI -23
CLINTON *      MOCLDY   -17 -24  70 E3        30.68R
6HR MIN TEMP: -18; 6HR MAX TEMP:  -9;

DECORAH *      PTCLDY    -8 -13  77 S6        30.57S WCI -21
DUBUQUE        MOCLDY    -9 -14  78 CALM      30.61R
6HR MIN TEMP: -15; 6HR MAX TEMP:  -8;

MONTICELLO *   MOCLDY   -24 -33  62 CALM      30.64R
OELWEIN *      MOCLDY    -9 -15  77 SE8       30.59S WCI -26
WATERLOO       MOCLDY   -20 -22  90 CALM      30.60S
6HR MIN TEMP: -23; 6HR MAX TEMP: -15;

$$

IAZ064-065-067-068-078-281300-
   EAST CENTRAL IOWA

CITY           SKY/WX    TMP DP  RH WIND       PRES   REMARKS
DAVENPORT      MOCLDY    -9 -15  75 SE5       30.66R WCI -20
6HR MIN TEMP: -12; 6HR MAX TEMP:  -4;

IOWA CITY      MOCLDY   -10 -16  74 CALM      30.66R
6HR MIN TEMP: -12; 6HR MAX TEMP:  -7;

MT. PLEASANT * MOCLDY    -3  -8  78 E7        30.64R WCI -16
6HR MIN TEMP:  -9; 6HR MAX TEMP:  -3;

MUSCATINE *    CLOUDY   -15 -20  76 CALM      30.68S
QUAD CITIES    MOCLDY   -14 -20  74 E3        30.68R
6HR MIN TEMP: -18; 6HR MAX TEMP: -13;

$$

IAZ062-063-075>077-085>089-095>099-281300-
   SOUTHEAST IOWA

CITY           SKY/WX    TMP DP  RH WIND       PRES   REMARKS
BURLINGTON     CLOUDY     2  -4  76 E7        30.64R WCI -11
6HR MIN TEMP:  -4; 6HR MAX TEMP:   2;

FAIRFIELD *    CLOUDY    -2  -9  71 SE7       30.62S WCI -16
FORT MADISON * CLOUDY     3  -2  78 E5        30.63F WCI  -6
KEOKUK *       CLOUDY     7   1  78 E7        30.63S WCI  -5
OSKALOOSA *    PTSUNNY   -4  -8  81 SE8       30.61R WCI -19
6HR MIN TEMP:  -5; 6HR MAX TEMP:  -1;

CENTERVILLE *  CLOUDY     7   1  78 E7        30.57S WCI  -5
OTTUMWA        PTCLDY    -4  -9  79 SE7       30.60R WCI -18
6HR MIN TEMP:  -5; 6HR MAX TEMP:   1;

WASHINGTON *   MOCLDY    -9 -11  92 E7        30.63S WCI -24
$$

ABBREVIATIONS USED IN REMARKS
   TC - TEMPERATURES IN CELSIUS
  WCI - WIND CHILL INDEX
   HX - HEAT INDEX
  VSB - VISIBILITY
$$



USA.gov is the U.S. government's official web portal to all federal, state and local government web resources and services.